Theta_e
315 319 320 323 323 324 324 322 322 318 315 315 316 318 316 315 316 315 318 320 321 319 316 315 313 314 315 314 311 309 309 309 310 312 313 308 303 304 302 302 303 303 302 302 302 302 303 304 306 307 307 307 308 308 307 305 304 304 304 305 304 306 315 325 329 329 331 332 332 332 333 332 331 330 330 330 330 330 330 330 331 331 331 332 333 334 330 326 322 321 318 323 329 323 318 317 313
319 320 322 324 323 324 321 320 325 322 318 315 314 314 314 314 314 313 315 317 321 319 315 314 312 311 311 310 309 308 306 304 305 305 305 304 304 303 300 300 301 302 302 301 301 301 301 303 305 307 308 308 308 308 309 308 305 304 304 304 304 304 306 314 324 328 330 332 331 331 333 333 332 331 330 331 331 330 330 330 331 331 331 331 332 333 332 331 326 322 320 323 326 322 319 317 314
321 322 323 324 322 321 319 320 327 323 319 316 313 312 312 313 313 311 310 310 315 318 316 314 312 310 309 308 307 308 306 303 304 304 303 303 302 300 299 299 300 301 301 301 301 300 301 303 306 308 309 309 309 308 309 309 307 307 306 304 304 304 304 305 314 324 329 331 332 331 331 332 333 333 331 331 331 331 330 331 331 331 331 331 331 333 333 333 331 325 322 322 322 321 321 318 315
321 322 323 323 321 319 319 321 324 321 317 317 314 311 311 310 311 310 308 307 310 315 316 315 311 309 309 307 306 306 305 304 304 303 302 301 299 298 298 298 299 300 300 300 300 299 301 303 307 309 309 309 309 309 309 308 309 309 308 305 304 304 305 304 305 314 323 329 332 332 332 332 332 334 333 332 332 331 331 331 331 331 331 331 331 332 333 333 333 331 327 323 321 322 322 318 316
320 322 323 322 320 316 316 316 316 317 314 317 315 310 310 308 309 309 307 307 308 309 311 314 312 308 308 306 305 305 304 304 303 302 300 299 298 298 298 298 299 300 300 299 299 299 301 305 308 310 310 309 309 309 309 309 309 309 308 306 305 305 305 306 305 305 312 322 328 330 332 332 332 332 332 333 332 332 331 331 331 332 331 331 331 332 332 333 334 333 331 326 321 322 321 319 318
320 321 321 320 316 311 313 311 310 311 309 313 312 308 309 306 307 308 306 307 306 307 307 310 312 309 306 304 304 304 303 304 302 300 298 298 298 299 299 299 300 300 299 298 298 298 302 306 309 310 310 310 310 309 309 309 309 309 309 309 307 305 305 305 305 304 305 310 320 327 329 331 332 332 332 332 332 332 332 332 331 332 332 332 332 333 332 333 333 333 332 328 323 322 322 320 319
321 320 319 317 313 309 311 310 309 310 307 308 309 307 308 305 306 306 305 307 306 307 307 308 310 310 307 304 304 304 304 304 301 299 298 299 300 300 300 300 300 300 299 298 298 298 302 307 308 308 309 309 310 310 310 309 310 309 309 309 308 306 305 305 305 304 304 305 309 318 326 329 331 332 333 333 332 331 333 333 333 332 332 333 332 333 332 332 333 332 332 330 326 322 322 322 320
320 317 314 313 313 311 310 308 308 310 308 305 306 307 306 305 306 305 303 306 306 305 306 307 308 309 308 306 305 304 304 304 301 299 299 300 301 301 301 301 301 300 299 298 298 298 302 307 308 306 306 307 308 310 310 310 310 310 309 308 308 306 305 305 305 304 305 305 305 307 316 325 329 331 332 333 333 332 333 334 334 333 332 332 333 333 332 332 333 333 332 331 328 323 322 322 321
317 316 313 311 312 311 309 309 308 308 307 305 305 305 305 305 306 305 304 304 304 304 305 306 307 308 307 305 305 304 304 303 301 300 300 301 301 301 300 300 300 300 299 298 298 298 300 305 307 306 304 303 306 308 309 310 310 310 310 310 309 308 307 306 305 305 305 305 305 304 307 315 324 329 331 332 333 333 333 333 334 334 333 332 333 333 332 332 333 333 332 331 329 325 323 322 321
314 314 313 312 311 309 309 310 310 307 306 305 304 305 305 305 305 305 304 304 304 304 305 305 306 307 306 304 304 304 304 302 301 301 301 301 301 301 300 299 299 298 298 299 298 298 299 303 305 305 303 301 303 306 308 309 309 310 310 310 310 310 309 308 306 305 305 305 304 304 303 306 314 324 329 330 330 331 333 333 333 334 334 333 333 333 332 332 333 333 332 331 329 327 325 322 321
315 313 312 314 314 312 309 309 308 306 305 305 304 305 305 305 305 304 304 305 305 305 305 305 305 305 305 305 305 305 303 302 301 302 302 301 300 300 299 298 298 297 298 298 298 298 298 299 302 303 302 300 300 304 308 309 309 309 310 310 310 310 310 310 308 307 305 304 304 304 304 303 305 313 323 328 329 329 331 332 332 333 333 333 333 333 332 332 332 333 332 332 330 328 327 324 321
315 312 313 316 314 311 308 307 307 306 306 306 305 305 305 305 305 304 304 305 305 305 305 305 305 305 305 304 305 305 303 302 302 302 301 300 300 299 299 298 297 297 297 298 298 298 297 298 298 301 301 300 299 302 307 308 308 308 309 310 310 310 310 310 310 309 307 305 304 304 304 304 303 304 311 321 327 329 330 331 331 332 333 333 333 332 332 332 332 332 332 332 332 329 327 326 323
314 313 316 315 310 308 307 308 308 309 309 306 305 305 305 304 304 304 305 305 305 305 305 305 305 305 305 304 304 304 303 303 302 302 300 300 300 300 299 298 297 297 297 298 298 297 297 297 297 298 300 300 298 300 305 307 307 308 309 309 310 310 310 310 310 311 310 308 305 304 303 304 303 303 304 310 320 328 330 330 330 330 331 333 333 333 332 332 331 331 331 331 332 331 329 326 325
313 313 316 313 309 310 309 309 309 311 308 304 305 305 305 305 304 305 305 305 305 305 305 304 305 305 305 304 305 304 303 302 301 301 300 300 300 300 299 298 297 296 297 297 297 297 297 297 297 298 298 299 298 298 303 306 307 308 309 309 309 310 310 310 311 311 311 311 309 306 304 303 303 304 303 304 311 322 329 330 330 329 329 331 333 334 333 332 332 332 331 331 332 332 331 328 326
313 310 315 315 312 312 310 310 310 310 306 303 306 305 305 305 305 306 305 305 305 305 305 305 305 305 304 304 305 303 303 302 301 301 301 300 300 300 299 298 296 296 297 297 296 297 297 297 297 297 297 297 297 297 300 304 306 307 308 309 309 310 310 310 311 311 311 311 311 309 306 304 303 303 303 302 304 312 323 328 331 330 329 330 332 333 333 332 332 332 331 332 332 332 332 330 327
312 310 315 316 311 310 309 308 308 308 305 303 305 306 305 306 306 306 305 305 305 305 305 305 305 305 304 304 304 303 302 302 302 301 301 301 300 300 299 298 297 296 297 297 297 297 297 297 297 297 297 296 297 297 298 302 305 306 307 308 309 310 310 310 311 311 311 311 311 310 309 306 304 303 303 303 302 306 315 324 329 330 329 330 332 332 333 332 332 332 331 331 332 332 331 331 329
310 310 313 313 310 310 308 308 307 306 306 304 305 306 305 306 306 306 306 306 306 305 305 305 305 305 304 304 303 303 302 302 302 301 301 301 301 301 300 298 297 297 297 297 297 297 297 297 297 297 297 296 297 297 297 300 302 304 307 308 309 311 311 311 311 311 312 312 311 310 310 308 306 304 303 303 303 303 308 317 326 330 330 330 331 332 333 332 332 332 331 331 331 332 332 331 331
311 313 310 309 310 309 306 307 306 305 306 305 304 305 305 305 306 306 306 306 305 305 305 305 305 304 304 303 303 303 302 302 302 301 301 301 301 301 300 299 298 298 297 297 297 298 298 297 296 296 296 296 297 297 297 298 299 301 306 309 310 311 311 311 311 312 312 312 312 311 310 310 308 306 304 302 302 302 304 311 321 328 330 330 329 331 333 332 332 331 331 331 331 332 332 331 331
310 313 311 309 309 307 304 305 304 304 305 304 304 305 305 305 305 306 306 305 305 305 305 305 305 304 304 303 303 303 302 302 302 302 302 301 301 301 300 299 298 298 298 298 298 298 298 297 297 296 296 296 296 297 297 296 297 300 306 309 310 310 311 311 311 312 312 312 311 311 311 310 310 308 306 304 302 302 302 306 315 325 329 329 328 328 332 333 331 331 330 331 330 331 331 331 331
305 311 314 308 306 305 304 304 304 305 305 304 304 305 305 305 305 306 306 305 304 305 305 305 304 304 304 303 303 302 302 302 302 302 302 301 301 301 300 300 298 298 298 298 298 298 298 297 297 296 296 296 296 296 296 296 296 299 305 308 309 310 310 310 311 311 312 312 311 311 311 311 311 310 309 306 304 302 302 303 311 323 329 329 328 325 329 333 332 331 330 330 330 330 331 331 331
304 308 313 306 303 306 305 305 305 305 305 305 304 304 305 305 305 306 305 306 306 305 305 305 304 304 304 303 303 303 303 303 302 302 302 301 301 301 300 300 299 298 298 298 298 298 298 298 297 296 296 296 296 295 295 295 295 299 304 308 309 310 310 310 311 311 311 312 311 310 309 310 311 311 311 309 307 303 302 301 307 319 327 329 328 325 326 330 332 331 330 329 329 329 330 330 331
304 304 306 304 304 306 305 305 305 305 305 305 305 305 305 305 305 305 304 306 307 305 304 305 304 304 304 303 303 303 303 303 302 303 302 302 301 301 300 300 299 299 298 298 298 298 298 298 297 296 296 295 295 295 295 295 295 298 304 308 309 310 310 311 311 311 311 311 311 310 308 308 310 311 311 311 310 307 303 301 304 314 324 328 328 326 324 327 331 331 329 329 327 326 328 330 331
305 304 303 303 304 305 305 305 306 306 305 305 305 305 305 305 305 305 304 305 306 304 304 305 305 305 304 303 304 303 303 303 303 303 303 302 302 301 301 300 300 299 298 298 298 298 298 298 298 297 296 296 295 295 295 295 295 298 302 305 306 308 310 311 311 310 310 311 311 310 308 307 308 310 311 310 311 309 305 302 302 310 320 326 327 326 324 325 330 331 329 329 328 326 327 329 330
306 305 303 303 304 304 305 305 305 305 305 305 305 305 304 305 305 305 305 304 304 304 305 305 305 305 304 304 304 303 303 303 303 303 303 302 302 302 300 300 300 299 299 298 298 298 299 299 298 297 296 296 295 295 295 295 295 296 300 301 301 306 310 311 310 309 309 311 311 310 308 308 308 309 310 309 308 308 306 303 302 307 317 324 327 326 325 326 329 331 330 329 327 325 326 329 330
305 305 303 303 304 304 304 304 305 305 306 306 306 305 304 305 305 305 305 305 305 304 305 306 305 305 304 304 304 303 303 303 303 303 303 302 302 302 301 300 300 299 299 299 299 298 299 299 298 298 297 296 295 295 295 295 294 295 298 298 298 304 309 310 309 308 309 311 311 311 310 310 310 310 310 310 307 305 304 303 302 306 316 323 326 326 326 327 329 330 330 328 326 325 326 329 329
304 304 304 304 305 304 304 304 305 306 306 306 305 304 304 305 305 306 305 305 305 305 305 306 305 305 304 304 304 304 303 303 303 303 303 303 303 302 301 300 300 300 300 299 299 299 299 299 299 298 297 296 295 295 295 294 294 294 297 297 297 304 309 309 309 309 309 311 311 311 310 311 312 311 311 311 308 305 304 303 304 307 315 322 325 326 326 327 328 329 330 328 326 324 326 329 329
304 304 304 304 304 304 304 305 306 306 305 305 306 305 304 304 306 307 306 304 304 305 306 306 306 305 304 304 304 303 303 303 303 303 303 303 303 302 302 301 300 300 300 300 300 300 300 300 299 299 298 297 295 295 294 294 294 294 295 296 296 304 310 309 309 310 311 311 311 312 312 312 312 312 312 312 309 307 306 305 307 311 316 322 325 326 326 326 327 328 329 328 326 324 326 328 328
304 305 305 304 304 304 304 305 305 305 305 305 305 304 304 305 307 308 305 304 304 305 306 306 306 305 304 304 304 303 303 303 303 303 303 303 303 302 302 301 300 300 300 301 300 300 300 300 300 299 298 297 295 294 294 294 294 294 294 295 296 303 309 310 310 310 311 311 311 312 313 313 313 313 313 314 312 310 312 313 314 318 321 323 325 326 326 326 326 326 327 328 327 325 327 328 327
305 305 306 304 306 306 304 305 305 305 305 304 304 305 308 308 308 307 304 303 304 305 305 305 306 305 304 304 303 303 303 303 303 303 303 303 303 302 302 302 300 299 300 301 300 300 300 300 300 299 299 298 296 295 294 294 294 294 294 294 295 300 307 311 311 311 312 312 312 313 314 314 314 315 315 316 316 315 317 319 321 323 323 324 325 326 326 327 326 326 326 327 326 326 326 326 326
305 305 305 308 313 311 304 304 304 304 305 304 304 309 315 313 308 306 305 304 303 305 305 305 305 304 304 304 304 303 303 303 303 303 303 303 302 302 302 302 301 300 300 301 300 300 300 299 299 299 299 298 297 296 295 294 294 294 294 294 295 297 303 310 312 313 313 313 313 313 314 314 315 316 317 317 318 319 320 321 323 324 323 324 325 324 325 326 326 325 325 325 324 325 326 325 325
308 305 308 314 316 311 305 304 304 305 306 304 304 311 317 313 308 306 305 304 303 304 305 305 305 304 304 304 303 304 303 303 303 302 303 303 302 302 302 302 301 300 300 301 301 301 300 300 299 299 299 299 298 297 295 294 294 294 294 294 295 296 299 307 312 314 314 314 314 314 314 314 315 316 318 318 318 320 321 322 323 323 323 323 324 324 324 325 325 325 324 325 325 325 326 326 326
311 308 313 316 314 311 308 305 303 305 305 304 306 312 316 311 308 306 305 305 304 303 305 305 305 304 304 304 304 304 303 303 303 303 303 303 302 302 302 302 301 300 300 301 301 301 300 300 300 300 299 299 299 298 296 295 294 294 294 294 295 295 296 302 309 313 315 315 315 314 314 315 315 315 317 318 319 320 322 323 323 322 322 321 322 323 323 324 324 324 323 323 324 325 325 325 325
319 312 312 313 312 311 310 306 303 303 304 303 305 309 312 308 306 306 305 305 305 304 305 305 305 305 304 304 304 304 304 304 303 303 303 303 302 302 302 302 302 300 300 301 301 300 300 300 300 300 300 299 299 299 297 296 295 294 294 294 294 294 295 297 302 309 314 315 315 315 316 316 316 316 317 318 319 320 321 322 322 321 321 321 321 321 321 322 323 323 322 322 323 325 325 325 325
324 318 316 312 311 310 310 309 304 303 304 305 305 305 310 308 304 305 306 305 305 304 305 305 304 305 305 304 304 304 304 303 303 303 303 303 302 302 302 302 302 300 300 301 301 300 300 300 300 300 300 300 299 299 298 297 295 294 294 294 294 294 294 295 296 301 309 313 315 315 316 317 317 316 317 317 317 318 319 320 320 320 320 320 320 320 320 320 320 320 322 323 323 324 324 323 323
317 315 317 315 313 311 311 310 305 304 306 307 306 306 309 308 304 304 306 305 305 305 304 305 305 305 304 304 304 304 303 303 303 303 302 303 302 302 302 302 302 301 300 301 301 300 300 300 300 299 300 300 300 299 299 298 297 295 295 294 294 294 294 295 295 296 300 308 313 315 316 316 316 316 316 316 316 316 316 317 318 318 319 318 318 318 318 318 319 319 321 322 322 322 322 322 322
311 309 310 311 313 313 310 307 305 303 306 310 309 307 308 309 307 305 306 305 305 305 304 304 305 305 304 304 304 303 303 303 303 303 302 302 303 302 302 302 302 302 300 301 301 300 300 300 300 300 300 300 300 300 299 299 299 297 296 295 295 294 294 294 295 295 296 300 306 312 315 316 316 316 315 316 316 315 315 315 316 316 317 318 318 318 318 318 319 320 320 321 321 321 320 319 320
308 308 310 310 311 315 312 307 304 302 307 312 310 308 309 309 308 304 305 305 304 305 304 304 305 304 304 304 303 303 303 303 303 303 302 302 302 302 302 302 302 302 301 301 301 300 300 300 300 300 300 300 300 300 300 299 299 299 297 296 295 294 294 294 294 295 295 295 298 303 309 314 316 316 316 316 316 316 316 315 315 315 315 316 317 317 317 317 317 318 319 319 319 320 319 318 317
308 309 312 313 311 311 309 305 304 302 306 312 310 309 309 307 307 304 303 303 303 305 305 304 305 305 305 304 303 304 303 304 304 303 303 302 303 302 302 302 302 302 302 301 301 301 300 300 300 300 299 300 300 300 300 299 299 298 298 297 295 295 294 294 295 294 294 294 295 296 300 304 310 314 316 316 316 316 316 316 315 315 315 315 315 315 315 315 315 315 316 316 317 317 318 318 316
312 312 313 314 310 309 309 307 306 302 305 315 312 308 309 308 307 304 302 303 304 305 305 305 306 305 305 304 304 304 304 304 303 303 303 303 302 303 302 302 302 302 302 302 301 301 300 300 300 300 299 300 300 300 300 300 299 298 298 297 296 295 295 294 294 294 294 294 294 295 295 296 299 304 309 313 315 316 316 316 316 315 315 314 314 314 314 314 314 314 315 315 315 315 316 316 315
310 312 313 312 307 307 311 311 307 303 304 311 309 308 313 314 312 306 302 304 304 304 305 305 305 305 305 304 304 304 303 304 303 303 303 303 303 303 302 303 302 302 302 302 302 301 301 300 300 300 299 299 299 300 300 300 300 299 298 298 297 296 296 295 294 294 295 295 294 295 295 295 295 296 299 303 308 312 315 316 316 316 316 315 315 314 314 314 314 314 314 314 314 314 315 315 315
310 310 310 309 306 304 306 307 305 306 306 305 307 316 320 317 318 314 306 304 304 304 305 305 305 305 305 304 304 304 304 304 304 303 303 303 303 303 303 302 302 302 302 302 302 302 301 301 300 300 299 299 299 299 300 300 301 300 299 298 298 298 298 297 296 296 296 296 295 295 295 295 295 295 295 296 298 302 307 311 314 316 316 315 315 315 315 314 314 314 314 314 314 313 314 314 314
313 308 306 304 304 303 305 305 306 315 316 305 306 321 326 321 319 316 311 308 305 304 304 305 306 305 305 305 304 304 304 304 304 304 303 303 303 303 303 303 302 302 302 302 302 302 302 302 301 301 300 300 299 299 299 300 300 300 300 299 299 299 298 298 298 297 296 296 295 295 295 295 295 295 295 295 295 295 297 301 306 310 314 315 315 314 314 314 314 314 314 314 314 313 313 313 313
314 306 304 304 303 304 305 306 308 316 316 306 306 315 321 324 319 314 313 311 308 306 305 305 306 306 305 305 305 304 304 304 304 304 303 303 303 303 303 303 303 302 302 302 302 302 302 302 302 301 301 300 300 300 300 300 300 300 300 300 299 299 298 298 298 297 297 296 295 295 295 295 295 295 294 294 295 294 295 295 297 300 305 310 312 313 314 314 314 314 313 313 313 313 313 313 313
311 306 305 305 304 305 306 306 308 310 311 311 313 310 311 322 323 317 312 309 312 314 311 307 306 307 306 305 305 304 304 304 303 304 303 304 304 304 303 303 303 303 302 302 302 302 302 302 302 302 302 301 300 300 300 300 300 300 300 300 300 299 299 298 298 298 297 297 296 296 295 295 295 295 295 294 294 294 294 294 294 295 296 299 301 304 306 308 310 312 313 313 313 313 313 313 313
307 304 303 303 304 305 304 307 311 308 309 318 319 309 310 324 326 318 312 308 312 319 317 309 305 306 305 304 305 304 304 304 303 304 304 304 304 304 303 303 303 303 303 303 302 302 302 302 302 302 302 302 301 301 301 300 300 300 300 300 300 300 300 299 298 298 297 297 297 297 296 296 295 295 295 295 295 294 294 294 294 294 294 294 294 295 297 298 300 303 306 308 309 310 312 313 313
304 301 302 304 305 306 305 307 311 311 314 319 315 308 311 326 329 320 312 309 314 319 316 308 304 305 305 304 305 304 304 304 304 305 304 304 304 303 304 303 303 303 303 303 303 302 302 302 302 302 302 302 301 301 301 301 301 300 300 300 300 300 300 300 299 298 298 297 297 297 297 297 296 296 296 295 295 295 295 294 294 294 294 294 294 294 294 294 294 295 297 299 300 303 307 309 311
301 302 306 308 309 308 307 307 309 315 323 318 310 307 309 320 330 323 312 312 316 316 312 306 304 306 305 305 305 304 305 305 304 305 304 304 304 304 304 304 304 303 303 303 303 303 303 302 302 303 302 302 302 302 301 301 301 301 301 300 300 300 300 300 300 299 299 298 298 297 297 297 297 297 296 296 296 296 295 295 295 295 294 294 294 293 293 293 294 294 294 294 295 297 300 302 305
302 306 308 310 315 313 312 316 316 320 326 317 309 307 306 314 326 321 314 314 312 309 309 307 305 306 305 305 306 305 305 305 305 305 304 304 304 304 305 305 304 304 303 303 303 303 303 302 302 303 303 302 302 302 302 301 301 301 301 301 301 300 300 300 300 300 299 299 299 298 298 297 297 297 297 296 296 296 296 296 296 295 295 295 294 294 294 293 293 293 293 293 293 295 297 298 300
306 311 312 317 328 325 321 329 326 324 323 312 306 306 308 315 321 318 316 313 308 305 307 307 305 306 306 305 305 305 305 305 305 305 304 304 304 305 305 305 305 305 304 303 303 303 303 303 303 303 303 303 303 303 302 302 301 301 301 301 301 301 300 300 300 300 300 300 299 299 298 298 298 297 297 297 297 296 296 296 296 296 296 295 295 295 294 294 294 293 293 293 293 293 294 295 296
310 311 313 321 330 328 328 329 322 323 323 311 303 306 314 318 316 315 314 309 306 305 305 306 305 305 306 305 306 305 305 305 305 304 305 304 304 305 305 305 305 305 305 304 303 303 303 303 303 303 304 303 303 303 302 302 302 301 301 301 301 301 301 301 300 300 300 300 300 300 299 299 299 298 298 297 297 297 297 296 296 296 296 296 296 295 295 295 295 294 294 293 293 293 293 293 293
310 306 309 319 320 319 324 326 323 322 321 314 307 310 320 320 314 311 308 304 305 306 305 305 305 305 305 305 305 305 305 305 305 305 305 305 304 305 305 304 304 304 305 305 304 304 303 303 303 303 304 304 304 304 303 303 303 302 302 301 301 301 300 300 300 300 300 300 300 300 300 300 299 299 299 298 298 297 297 297 297 296 296 296 296 296 296 295 295 295 294 294 294 293 293 293 293
309 306 313 317 313 315 316 314 316 314 314 319 315 313 320 316 309 306 303 303 304 304 305 305 305 306 306 305 305 306 306 305 305 305 305 305 305 305 304 304 304 304 304 305 304 304 304 303 303 303 303 303 304 304 303 303 303 303 302 302 301 301 300 301 300 300 300 300 301 300 300 300 300 300 300 299 299 298 298 298 297 297 296 296 296 296 296 296 296 295 295 295 294 294 293 293 293
310 312 315 308 304 312 315 308 308 307 312 322 317 315 321 315 311 308 304 305 305 304 304 305 306 306 305 306 306 306 306 306 306 305 305 305 305 305 305 304 304 304 304 305 304 304 304 304 304 303 303 303 303 304 303 303 303 303 303 303 302 301 301 301 300 300 300 300 300 300 300 301 300 301 300 300 300 299 299 298 298 298 297 297 296 296 296 295 295 296 295 295 295 294 294 294 293
313 317 310 303 302 309 312 312 317 316 319 324 317 316 320 318 318 314 306 307 310 307 304 303 305 306 305 306 307 306 307 306 306 305 305 305 305 305 305 304 304 304 304 304 304 304 304 303 303 303 303 303 303 303 303 303 303 303 303 303 303 302 302 301 301 301 300 300 301 300 300 300 300 300 300 300 300 300 300 299 299 298 298 298 297 297 296 296 295 295 295 295 295 295 295 294 294
306 308 303 305 311 313 314 315 318 319 319 322 319 315 315 317 323 318 308 310 313 311 308 304 305 306 306 307 307 306 307 306 306 305 305 305 305 304 305 304 304 304 304 304 304 304 303 303 303 303 303 303 303 303 303 303 303 302 303 303 303 303 302 302 302 301 301 301 301 301 300 300 300 300 300 300 300 300 300 300 300 299 299 298 298 297 297 296 296 296 295 295 295 295 295 295 295
303 305 304 308 312 310 311 310 310 315 317 319 320 321 322 323 324 319 312 314 316 316 315 308 305 307 307 307 307 306 306 306 306 305 305 305 305 304 304 304 304 304 304 304 304 304 303 303 303 302 302 302 302 302 302 302 302 302 302 302 302 303 302 302 302 302 302 302 302 301 301 301 300 300 300 300 299 299 300 300 300 300 300 299 299 298 298 297 297 296 296 296 295 295 295 295 294
308 312 311 311 308 304 307 307 306 311 317 317 317 322 328 323 317 315 316 317 314 312 312 308 306 307 307 306 307 306 307 306 306 306 305 305 305 305 304 304 304 304 304 304 303 304 303 303 303 302 302 302 302 302 302 302 302 302 302 302 302 302 302 302 302 302 302 302 302 302 301 301 301 300 300 300 299 299 299 299 299 299 299 299 299 299 299 298 298 297 297 296 296 295 295 295 295
305 309 310 312 311 309 314 313 307 306 311 315 314 316 322 318 310 311 312 309 306 305 307 307 306 307 306 306 307 306 306 306 306 306 305 305 305 305 304 304 304 304 304 304 303 303 303 303 303 303 302 302 302 302 302 302 302 302 302 302 302 302 302 302 302 302 302 302 302 302 302 302 301 301 301 300 300 300 299 299 299 299 299 299 299 299 299 299 299 298 298 298 297 296 296 296 295
Wind_Speed
3 2 2 1 0 2 5 6 7 6 4 5 3 2 2 2 2 1 4 3 1 3 7 9 11 12 8 9 11 11 10 5 2 3 2 7 14 17 18 18 18 18 19 21 22 23 24 25 25 24 24 24 24 24 23 22 20 17 15 14 14 14 14 15 16 16 16 15 12 10 11 13 16 16 16 17 18 17 18 18 17 16 15 16 15 13 14 14 12 10 9 7 7 6 5 4 2
4 2 2 3 4 4 5 7 5 3 5 4 3 1 2 4 2 3 4 3 2 3 9 12 14 17 15 14 11 9 9 7 5 6 6 11 16 16 16 18 18 18 19 21 22 24 25 26 26 25 25 25 24 24 23 22 21 19 17 15 14 14 15 14 15 17 17 18 16 13 12 11 12 16 17 17 18 18 19 20 19 19 18 18 16 14 13 15 15 12 11 9 8 7 6 3 2
5 3 2 5 8 9 7 7 5 2 5 4 2 2 2 3 2 3 4 7 7 7 8 10 11 10 9 8 7 6 4 4 6 11 12 14 19 19 18 17 17 18 19 21 22 24 25 26 26 25 25 25 24 23 23 23 22 21 19 16 14 15 16 16 15 16 18 19 18 17 16 13 9 12 17 19 19 19 20 21 21 21 21 19 18 16 15 15 16 15 13 11 9 8 6 3 2
8 4 5 10 10 10 6 5 3 4 4 3 1 3 2 1 1 2 7 14 13 7 4 3 6 7 7 6 4 5 5 4 7 14 15 16 19 20 18 17 17 18 20 21 22 24 25 25 25 25 24 23 24 24 23 23 22 21 20 19 16 15 15 16 17 17 18 19 20 19 19 18 13 9 14 18 19 20 21 21 22 22 22 22 20 19 18 17 17 16 14 12 10 9 7 4 3
8 6 7 11 8 6 5 4 2 5 3 3 2 3 4 2 1 3 8 14 15 12 8 3 4 6 9 9 4 3 7 6 8 14 15 16 18 18 18 18 19 20 21 23 23 24 24 24 25 25 24 23 23 23 23 23 22 22 21 20 18 17 16 16 17 17 18 20 21 22 22 22 20 16 16 18 19 20 21 23 24 23 23 24 22 21 21 18 17 16 15 13 12 11 8 5 4
9 13 10 12 12 6 5 5 4 5 1 3 3 2 5 4 2 4 6 10 13 15 13 7 5 6 8 9 8 5 7 8 10 15 16 17 18 18 20 19 20 21 22 23 23 24 24 24 24 24 24 24 23 23 23 22 22 21 20 20 19 18 17 17 17 18 18 20 21 23 25 25 25 22 21 20 20 19 20 25 24 22 23 25 24 23 21 19 18 17 16 15 14 13 8 6 5
7 10 11 13 14 8 5 5 4 4 2 2 4 1 6 6 5 8 7 5 9 13 14 9 7 7 6 3 6 7 8 10 11 15 16 17 18 19 20 20 21 21 22 23 23 23 24 24 24 24 24 24 24 24 23 23 22 20 19 20 20 18 18 18 18 18 19 20 21 22 24 26 27 26 24 22 22 20 19 22 23 22 22 24 24 23 20 20 20 18 17 17 16 15 9 7 7
7 7 13 12 7 6 5 5 4 2 2 3 3 4 7 7 9 9 9 7 5 9 13 9 5 4 3 2 1 5 9 11 12 14 15 17 18 19 20 21 20 20 21 22 22 22 23 24 24 25 25 25 24 24 24 24 23 21 19 20 21 20 18 18 19 19 19 20 20 22 23 25 28 29 27 24 24 23 21 18 20 23 22 23 25 24 22 21 22 21 19 18 17 16 11 9 9
10 10 14 11 4 5 4 4 4 2 2 3 5 8 9 11 12 8 7 9 4 6 13 10 5 3 3 4 3 4 9 11 12 14 16 17 19 19 20 20 20 19 19 20 21 21 22 23 24 25 26 26 26 25 24 24 23 22 20 19 20 21 20 19 19 20 21 21 21 22 23 24 27 29 29 27 27 25 22 19 19 22 23 24 24 24 23 22 23 23 20 19 18 16 13 12 11
14 11 11 7 3 6 5 3 2 2 1 1 5 9 10 10 14 11 6 7 6 6 10 9 9 7 7 4 2 3 11 12 12 14 17 17 19 20 19 19 19 19 18 19 20 20 21 22 23 24 25 26 26 26 26 24 23 22 21 20 20 19 20 21 21 21 23 23 23 23 24 24 26 28 29 30 30 28 24 22 20 21 23 23 22 22 23 23 23 23 22 20 19 17 15 14 12
13 9 10 7 4 5 4 3 3 1 2 2 4 8 10 10 12 10 6 5 6 8 9 6 7 7 7 3 2 4 13 15 15 16 17 18 20 20 19 18 18 18 18 18 19 20 20 21 22 23 24 25 26 27 27 26 26 25 24 22 22 20 19 20 22 22 23 24 25 25 25 25 25 26 28 30 32 31 28 25 23 22 23 23 22 22 23 22 23 24 23 21 19 18 17 16 14
9 4 7 5 3 4 4 5 4 2 3 3 3 5 6 8 9 5 5 5 5 7 11 8 3 3 3 1 2 7 14 15 16 16 18 20 21 20 19 18 17 16 17 17 18 19 20 21 22 23 24 25 26 27 27 28 28 29 27 25 24 22 20 19 20 23 23 23 26 27 27 26 26 25 26 28 30 32 31 29 26 24 23 23 22 23 23 22 23 24 24 22 20 18 18 18 16
11 3 7 4 3 4 5 5 4 2 4 2 1 2 3 5 6 5 6 7 6 5 9 10 2 3 2 3 3 7 13 14 15 17 19 21 21 20 19 18 16 15 16 17 18 19 20 21 22 23 24 25 25 26 27 28 29 31 29 27 26 25 23 20 19 21 23 24 25 27 28 27 27 26 25 26 29 31 32 32 30 28 25 23 22 22 23 23 23 24 24 24 22 20 19 19 18
13 7 7 4 3 3 5 4 2 3 1 3 2 1 3 4 5 5 6 6 5 5 6 9 2 2 3 4 4 9 14 14 17 18 20 20 20 19 19 18 16 15 16 17 19 20 21 21 22 23 24 25 26 26 27 28 30 32 30 28 27 27 26 24 21 19 21 24 24 26 27 28 28 26 24 25 28 29 30 32 33 32 28 24 23 22 23 25 24 23 24 25 24 21 20 19 18
18 13 7 4 4 3 2 2 3 4 2 3 3 1 4 5 5 5 5 4 4 4 4 8 5 1 3 3 5 12 14 14 17 19 21 21 19 18 19 18 16 16 17 19 20 21 21 22 22 23 24 25 26 26 27 28 30 32 31 30 28 28 27 26 24 22 20 21 24 25 26 29 28 27 25 25 26 27 28 31 33 33 30 27 26 24 23 25 25 23 23 24 24 23 21 19 19
19 13 6 4 4 2 2 2 3 4 2 3 4 4 4 5 4 4 4 3 5 5 4 7 7 4 2 3 7 11 11 14 18 19 21 21 20 19 18 18 17 17 19 20 21 21 22 22 22 23 24 25 25 26 26 28 31 32 32 32 31 28 27 27 26 23 21 19 21 23 25 28 29 27 26 24 25 27 28 29 32 33 31 28 28 26 25 26 25 23 23 23 23 23 22 20 19
15 10 6 5 3 2 2 3 3 3 3 3 4 6 3 2 2 3 3 4 6 6 4 5 6 4 3 4 6 9 10 14 17 19 21 22 22 20 19 19 19 19 20 21 22 22 22 23 23 24 24 25 25 26 26 28 30 32 33 33 32 31 29 26 25 23 21 19 18 21 24 25 28 28 27 25 24 26 28 29 29 32 32 29 28 27 27 27 26 25 24 23 23 24 23 21 20
9 5 5 5 3 2 2 5 5 5 4 2 3 6 5 2 1 3 5 5 7 5 3 2 2 2 4 5 7 9 11 14 16 18 21 24 25 23 21 21 21 21 21 22 22 23 23 24 25 25 24 24 25 26 27 29 30 31 32 32 33 33 31 27 24 23 21 20 19 19 21 23 25 27 27 25 24 25 27 28 27 29 32 32 29 26 25 27 27 27 25 23 23 23 23 22 21
9 3 5 3 4 2 1 5 6 5 7 6 7 6 5 2 1 3 4 3 5 3 1 1 0 1 3 6 7 9 11 14 16 18 21 25 27 25 22 22 22 22 22 23 23 23 23 24 26 26 25 25 25 26 28 29 30 30 31 32 33 34 33 30 25 23 22 21 21 19 19 22 23 23 25 25 25 25 26 26 25 26 31 33 32 28 24 26 27 26 26 23 22 23 23 23 23
8 4 5 1 6 5 4 6 8 9 11 10 9 6 5 4 2 4 6 4 2 1 1 1 2 4 5 7 8 9 12 15 16 18 21 23 26 26 22 22 22 22 23 23 23 23 23 23 25 25 25 26 26 27 27 28 29 30 31 33 34 35 34 33 30 24 21 21 21 20 17 18 20 21 21 23 24 24 24 25 25 25 30 33 33 31 27 25 26 27 26 23 21 22 23 24 24
5 4 5 5 8 6 5 8 9 11 10 8 8 6 5 4 4 3 9 5 1 2 1 1 2 4 6 8 10 12 14 16 15 18 21 21 24 25 22 20 20 21 21 22 22 22 22 24 25 25 26 26 27 27 28 28 29 30 33 35 36 36 36 37 36 30 22 19 21 21 18 14 16 18 18 20 22 23 23 24 25 25 29 32 31 31 29 25 26 28 27 26 24 24 23 24 25
7 5 6 7 8 5 5 8 8 8 8 7 7 4 2 1 3 3 6 4 2 2 0 2 2 3 5 8 11 14 15 15 15 18 21 21 23 25 22 19 18 19 20 21 22 22 23 24 25 26 26 26 27 28 28 29 30 32 35 35 35 35 38 39 38 34 24 17 19 21 20 13 9 12 14 16 19 22 23 22 24 26 27 29 31 31 31 28 27 29 28 27 25 25 24 24 26
6 5 7 7 7 8 7 7 7 6 8 7 4 2 1 3 2 1 1 1 1 1 2 2 2 2 4 7 11 13 15 15 16 18 20 20 23 25 23 20 19 20 20 21 22 22 23 24 25 25 25 26 26 27 28 29 30 32 34 35 35 36 38 40 39 34 23 16 17 19 19 13 6 5 8 11 14 18 21 22 23 25 25 26 30 32 32 30 28 28 28 26 25 25 24 23 25
10 4 5 8 10 11 8 7 8 7 8 5 2 1 1 3 2 1 3 2 1 0 2 2 2 2 4 6 10 13 14 15 16 19 19 20 23 24 23 21 20 20 20 20 21 22 22 23 23 24 24 25 26 27 27 28 29 30 33 36 37 36 37 41 40 33 22 16 14 16 16 12 8 6 4 5 9 14 18 21 22 23 23 23 27 30 30 27 25 25 26 25 26 26 24 24 25
8 4 6 9 10 10 9 8 8 7 6 3 1 2 1 1 1 3 4 3 2 2 2 1 3 3 4 6 10 13 14 15 17 19 19 19 23 23 23 22 20 20 19 20 21 21 22 22 22 23 24 25 26 26 26 27 28 30 35 38 37 37 38 41 40 32 24 18 12 13 14 12 9 8 6 4 6 10 15 18 19 20 20 20 24 26 27 25 21 23 27 28 28 27 25 24 24
4 8 10 10 10 10 8 7 7 5 3 2 1 1 1 0 2 4 5 3 2 3 4 4 5 4 4 6 10 12 14 15 17 19 19 19 23 22 22 22 20 19 19 19 20 21 21 21 21 22 23 25 25 25 25 27 29 32 36 38 38 36 36 38 39 33 28 22 15 12 13 12 10 9 7 5 6 7 11 14 14 15 16 18 20 22 24 23 20 21 25 28 29 28 27 25 23
12 15 14 13 11 7 5 5 4 2 1 2 1 1 1 1 1 3 5 2 2 4 4 4 6 5 3 6 9 11 13 15 17 20 19 20 22 22 23 23 20 18 18 19 20 21 21 21 21 21 22 23 24 24 26 28 29 31 33 36 38 35 32 35 38 34 29 25 20 15 13 11 10 8 6 5 6 5 5 8 9 10 12 14 15 19 22 21 20 20 24 30 31 29 28 25 21
20 18 13 8 6 5 3 3 2 0 1 2 1 1 2 1 1 3 4 3 3 4 3 4 6 6 3 5 7 11 13 14 17 20 19 21 22 22 23 24 22 18 17 19 20 21 21 21 20 20 20 22 24 25 26 27 28 30 31 33 36 35 32 32 36 35 31 28 24 19 14 12 11 8 6 6 6 5 1 2 4 5 7 10 12 16 21 21 18 15 19 32 34 29 26 22 20
16 11 8 4 4 5 5 1 2 1 1 3 2 3 4 3 4 4 2 3 5 5 4 4 5 5 3 4 6 9 12 14 17 19 19 21 22 21 23 24 23 19 17 18 19 20 20 21 20 20 20 21 23 25 26 27 27 28 29 31 34 36 34 32 35 37 36 32 28 22 16 13 12 9 8 7 5 4 5 5 4 3 4 6 9 13 19 21 19 11 9 18 22 21 22 22 22
6 2 5 2 5 5 6 5 1 2 1 2 1 2 5 6 7 6 2 3 5 5 4 2 3 4 3 4 6 9 11 14 17 19 20 20 20 21 22 23 22 19 17 17 18 20 21 21 21 20 20 21 22 24 25 25 26 26 27 29 32 34 35 33 33 35 36 34 30 25 17 13 11 9 9 8 5 5 7 7 6 5 4 5 8 10 14 18 19 14 9 9 12 16 20 21 22
2 2 3 2 3 2 4 6 4 0 1 2 2 0 5 7 8 7 4 4 4 5 4 1 2 4 3 5 7 9 11 13 16 19 20 19 19 20 22 22 21 18 16 16 18 20 21 21 21 21 20 20 21 22 23 24 24 24 25 27 29 31 34 34 32 33 33 32 32 28 21 16 13 10 8 8 6 5 7 9 8 6 5 5 6 8 10 14 16 13 10 10 12 16 18 20 21
3 1 3 4 3 2 6 3 6 3 3 3 3 0 5 6 7 7 6 4 4 4 3 1 2 3 4 6 8 10 11 13 14 19 20 18 18 19 20 21 20 18 16 16 18 20 21 20 20 21 21 20 19 20 21 23 23 23 23 25 26 28 31 33 33 31 30 29 30 29 27 25 21 16 11 9 8 7 10 10 8 6 4 3 3 6 7 8 11 10 8 8 10 16 20 21 23
4 3 1 3 3 3 4 0 5 6 2 2 2 2 3 3 4 5 8 6 5 6 4 3 3 4 6 9 9 10 11 12 14 18 20 17 18 19 19 21 20 18 17 16 18 20 21 21 20 20 21 20 19 19 19 20 21 22 22 23 24 26 28 30 32 31 29 28 29 29 30 31 29 26 21 17 13 9 9 8 6 5 4 3 3 4 4 4 5 5 6 9 11 17 22 23 24
4 3 2 2 1 1 3 2 6 9 3 2 1 3 5 6 7 5 10 8 7 8 6 4 4 6 9 10 10 10 12 12 14 18 20 18 18 18 18 20 20 18 16 16 17 19 21 21 20 20 21 20 19 19 18 19 20 21 21 22 23 24 25 28 29 30 30 29 28 27 26 26 28 28 27 25 22 18 13 8 5 3 1 1 3 3 3 3 3 2 4 12 17 19 22 25 27
1 2 2 3 3 2 2 2 4 9 4 3 2 3 7 9 11 8 9 11 10 10 8 6 5 7 9 9 9 10 11 12 14 17 19 19 18 17 17 19 20 18 16 15 16 18 20 21 21 20 20 20 20 19 18 17 17 18 20 21 21 22 24 25 26 28 29 29 28 25 22 21 21 23 24 24 24 23 20 17 13 10 8 5 1 2 3 3 3 3 4 11 17 19 22 26 27
4 2 2 2 3 4 4 4 4 7 4 4 1 3 7 8 10 9 8 12 14 12 9 8 7 8 9 9 9 10 11 13 14 15 17 19 18 17 16 18 20 18 16 15 16 17 20 21 21 21 20 21 20 20 18 16 16 17 19 21 22 23 23 23 24 25 26 27 26 24 22 20 19 20 21 21 21 21 21 20 19 18 16 12 9 8 7 6 4 3 5 7 12 17 21 24 24
3 3 2 3 2 4 4 3 5 9 4 4 2 3 8 8 9 12 10 9 14 14 11 11 8 7 9 9 10 11 12 13 13 14 16 19 18 17 16 17 19 18 16 15 16 17 19 20 22 22 21 21 21 21 20 19 18 18 20 22 23 23 23 22 22 23 24 24 24 23 23 21 19 18 18 18 19 19 19 18 18 18 18 16 15 15 14 12 9 6 4 6 9 13 18 19 18
1 2 2 2 1 4 5 3 5 9 5 4 3 6 10 9 8 12 10 6 12 15 14 11 9 6 8 9 9 11 11 12 13 14 16 18 20 17 16 16 17 18 17 16 16 17 18 20 21 22 22 22 22 22 21 20 19 19 20 21 21 21 22 22 22 22 22 22 22 22 22 21 20 18 16 15 15 15 16 15 15 15 15 15 15 15 14 13 12 10 8 6 6 7 10 13 13
3 0 0 2 3 5 6 3 5 8 4 4 5 7 10 9 7 9 7 8 10 12 13 10 8 7 8 8 9 10 11 12 13 15 17 19 21 19 17 16 16 17 18 16 16 16 17 19 20 21 22 22 22 22 22 21 20 19 18 18 19 19 19 20 20 20 20 20 20 20 20 21 20 19 17 16 14 13 12 12 13 12 12 12 11 11 10 10 10 10 9 7 5 4 5 8 10
3 3 3 2 4 3 4 4 7 8 2 3 5 4 6 7 6 6 3 6 8 9 11 10 9 10 10 10 10 11 12 13 13 16 18 19 21 20 18 16 16 16 17 16 16 16 16 17 19 20 21 22 21 21 21 21 19 18 17 16 16 15 15 16 16 17 18 19 19 19 19 20 20 19 18 17 15 14 12 11 10 9 10 9 9 9 8 8 8 8 9 6 5 3 5 7 10
3 2 4 1 4 2 4 5 8 7 1 2 5 3 4 5 5 5 4 2 5 6 8 11 11 11 11 11 11 11 12 13 15 18 19 20 21 21 19 17 17 16 16 16 16 16 16 16 17 18 20 21 21 21 20 20 19 18 16 14 12 11 12 13 13 15 18 18 18 19 19 18 18 17 17 17 16 15 13 11 10 8 7 6 7 6 6 6 5 5 5 4 3 3 3 4 7
4 1 4 2 3 5 5 6 6 4 3 4 6 5 4 5 4 6 4 5 5 6 8 13 14 13 12 12 12 11 12 14 16 18 19 20 21 21 19 18 17 16 16 16 16 15 15 15 16 17 18 19 21 21 20 21 20 20 19 17 16 15 15 15 15 16 18 18 18 18 17 16 16 15 15 15 15 15 14 13 11 9 7 5 5 4 3 4 3 2 1 1 0 2 3 5 7
2 1 5 3 2 2 3 5 3 3 2 4 5 4 3 6 5 6 5 6 7 8 10 12 13 12 12 12 12 12 13 14 16 18 19 20 20 19 20 19 18 17 16 16 15 15 15 14 14 15 16 17 19 20 20 21 21 21 20 20 19 18 16 15 15 14 15 16 16 16 15 15 15 14 14 13 13 13 13 13 12 10 8 6 5 4 4 4 3 2 3 4 4 4 4 6 8
1 2 5 2 1 1 2 3 3 1 2 4 5 4 1 4 5 6 4 5 7 7 8 10 9 9 11 12 12 12 13 14 16 18 19 18 18 19 20 20 19 17 17 16 15 15 15 14 14 13 14 15 16 18 20 20 20 21 20 19 19 18 16 15 14 12 12 12 12 13 14 14 14 14 13 12 12 12 11 11 11 10 9 7 6 5 5 4 4 4 5 6 6 6 6 7 8
3 3 4 1 2 2 1 3 2 1 2 3 6 3 1 4 6 5 4 4 6 6 6 8 9 8 9 11 11 11 11 12 15 17 17 17 18 19 20 21 20 18 17 16 15 15 15 15 14 13 13 14 15 16 18 19 20 20 20 20 19 18 17 16 14 13 12 10 9 10 11 12 12 13 13 12 12 11 11 10 9 9 8 8 7 6 6 5 4 3 4 6 8 9 9 9 9
1 4 3 1 2 3 2 3 2 2 4 1 6 3 2 4 6 4 2 2 5 6 6 7 8 7 8 9 9 9 10 11 13 15 16 17 18 19 21 21 21 18 16 16 16 15 15 15 15 14 13 13 13 14 16 17 18 19 20 20 20 19 18 17 15 14 12 11 10 9 8 8 9 10 11 11 11 11 11 10 9 8 8 7 6 6 6 6 6 5 5 5 6 6 8 9 10
1 4 4 3 3 4 3 2 3 3 3 3 5 2 2 2 5 3 3 4 5 4 4 6 6 5 6 6 8 9 10 12 13 15 16 17 18 19 20 21 20 18 15 15 15 15 15 15 15 14 13 13 14 13 14 15 16 17 18 19 20 20 20 19 18 16 14 13 11 10 9 8 8 8 9 9 10 10 10 10 9 9 8 7 7 7 7 7 7 7 7 7 6 5 5 7 9
2 3 3 2 3 3 3 4 4 4 2 4 3 1 2 2 5 5 5 5 6 6 4 6 6 4 4 5 7 8 10 12 13 15 16 17 18 18 18 18 19 18 16 14 14 15 15 15 15 15 13 13 14 14 13 13 14 15 16 17 18 19 20 20 20 19 18 16 14 12 11 10 9 8 8 8 8 9 9 9 9 9 9 9 9 8 8 8 8 8 8 8 8 7 7 7 8
4 3 4 3 2 4 3 4 3 1 4 3 0 1 0 4 7 6 5 6 8 8 7 6 6 5 5 7 8 9 10 12 13 14 15 17 17 17 16 17 18 17 16 15 14 14 15 15 14 15 14 13 14 14 14 13 13 13 14 15 16 17 18 19 20 19 19 19 18 16 14 13 11 10 9 9 9 8 8 9 9 9 9 9 9 9 9 9 9 9 9 9 9 9 9 9 9
4 2 3 3 2 4 3 4 3 3 5 3 1 1 2 4 4 5 7 8 9 9 7 6 7 7 8 10 11 12 12 12 13 14 16 17 16 16 16 16 17 17 16 15 14 14 15 15 14 15 15 14 14 14 14 14 13 13 13 14 14 15 16 17 18 18 19 19 19 19 18 16 15 13 12 11 10 10 10 10 10 9 9 10 10 10 10 10 10 10 11 11 11 11 11 11 12
3 1 3 3 3 3 1 3 1 3 5 4 3 1 2 2 2 4 7 7 7 7 7 8 10 10 10 12 13 13 13 13 14 15 16 17 16 16 16 16 17 17 16 16 15 14 15 15 15 16 16 15 14 14 14 14 14 13 13 13 13 14 14 14 15 16 17 18 19 19 19 18 18 17 15 14 13 12 12 11 11 11 11 11 11 11 11 11 11 11 12 12 12 12 13 13 13
2 1 3 2 2 3 1 2 3 1 3 4 2 2 4 3 3 4 4 5 7 8 9 11 12 12 11 14 15 14 14 14 14 14 15 15 15 15 16 16 16 16 16 16 16 16 16 16 16 16 16 16 15 14 14 15 14 14 13 13 14 14 14 14 14 14 15 16 17 17 18 18 18 18 18 18 17 16 15 14 14 13 13 13 13 13 13 13 12 12 12 13 13 14 14 14 15
1 3 2 1 3 5 3 0 1 4 1 4 2 3 5 3 3 5 5 6 8 9 11 14 14 13 13 14 16 16 15 15 14 14 14 15 15 15 15 15 15 15 15 15 16 17 17 17 17 17 16 16 15 15 15 15 15 15 14 13 13 14 15 15 14 14 14 15 15 15 16 16 17 18 19 19 19 19 18 17 17 16 15 15 15 15 15 16 15 14 14 14 14 14 15 15 16
2 2 1 2 3 4 3 0 4 5 1 4 3 3 6 3 2 5 5 6 8 8 11 13 14 14 14 14 15 16 16 15 15 14 14 14 15 14 14 14 14 15 15 15 15 16 17 18 18 18 17 16 16 15 15 15 15 16 15 15 14 14 14 15 15 15 15 16 15 14 15 15 15 16 18 19 20 20 20 20 19 19 18 18 17 17 17 17 18 17 17 16 16 16 16 16 16
3 3 3 2 3 1 2 2 2 3 3 5 5 5 4 3 3 3 3 7 8 8 8 9 12 14 12 13 14 15 15 15 15 15 14 14 13 14 15 15 14 14 14 14 15 15 16 17 17 18 18 18 17 16 16 16 16 16 16 16 15 15 14 14 15 16 16 17 16 16 16 16 15 16 17 18 19 20 20 20 21 21 21 20 20 19 19 19 20 20 20 19 19 19 20 19 18
2 3 2 2 3 2 1 2 1 0 2 4 5 5 3 5 5 5 6 8 8 7 5 6 12 13 11 13 15 15 15 15 16 16 15 14 14 16 16 15 15 14 14 14 15 15 16 16 17 17 18 19 18 18 18 17 17 17 17 16 15 15 15 15 15 16 17 17 17 17 17 17 17 18 18 19 20 20 20 20 21 21 22 22 22 22 21 21 21 22 22 21 21 22 23 22 20
2 3 3 2 2 2 1 1 1 3 2 1 2 5 6 6 4 6 7 7 7 8 6 8 12 12 11 13 16 16 16 17 17 17 17 16 16 17 17 16 16 15 15 14 14 15 16 16 17 17 18 19 19 18 18 18 18 19 18 18 17 16 16 16 16 16 17 17 17 18 18 18 19 19 20 21 21 21 22 22 22 22 23 23 23 23 23 23 24 24 24 23 23 23 24 24 23
1 1 1 2 2 2 3 2 3 1 2 3 2 4 9 6 3 5 6 6 8 10 9 11 14 14 14 16 19 18 17 18 19 19 19 18 17 18 17 15 15 15 14 14 14 14 15 16 17 17 18 19 20 20 20 19 19 19 19 19 18 17 17 17 17 17 17 17 17 17 18 19 20 20 21 22 23 23 23 24 24 25 24 24 24 24 24 25 26 26 26 25 25 25 26 25 25
Wind_Direction
175 189 192 145 48 93 72 80 60 27 71 78 35 42 7 358 162 59 15 357 19 60 74 76 56 59 80 100 105 87 70 67 49 22 325 307 323 327 329 340 346 345 350 354 353 351 351 350 346 346 343 338 336 334 331 327 325 320 315 307 297 289 279 269 262 257 249 247 255 263 263 257 251 249 250 250 249 246 243 243 243 244 244 246 241 233 231 234 239 239 234 217 201 213 231 252 318
124 95 112 94 68 114 76 67 94 11 58 75 5 12 318 336 38 65 29 4 10 127 96 81 78 79 90 100 97 81 63 62 44 8 332 316 329 337 343 346 344 345 351 353 354 355 353 350 349 349 345 340 337 334 332 328 324 321 316 307 300 290 283 275 263 258 252 247 245 244 249 260 258 253 251 251 251 247 246 243 241 242 241 242 243 240 236 236 236 235 234 218 208 225 240 254 302
82 84 103 116 93 100 81 51 87 66 72 91 358 306 320 3 43 86 61 36 48 140 122 83 80 73 87 86 54 68 70 38 12 354 343 335 338 345 349 345 344 347 349 353 355 357 354 351 352 350 347 343 339 336 332 328 326 324 317 308 300 292 286 279 269 258 252 245 241 240 240 244 255 265 257 252 252 247 247 246 242 241 241 242 242 239 235 237 235 231 231 224 224 232 238 253 281
63 90 119 123 95 71 63 43 83 94 94 120 81 302 322 33 230 101 63 51 57 101 130 72 66 59 75 64 46 80 46 353 345 346 345 345 341 341 345 344 344 347 351 354 356 358 355 352 353 351 348 346 343 338 333 329 326 325 320 312 303 296 291 285 276 264 256 247 242 241 242 241 238 255 258 253 253 249 247 248 247 243 243 242 238 235 232 231 229 229 230 230 231 227 231 252 269
54 74 129 131 91 53 75 68 63 80 116 155 122 305 313 325 192 120 65 55 54 51 45 55 86 80 73 50 43 61 15 352 340 346 349 350 344 341 344 345 345 349 354 355 357 358 354 354 356 353 349 347 345 341 337 332 326 322 321 318 309 301 297 292 282 271 262 254 249 244 244 245 239 236 242 247 250 251 250 247 247 244 242 241 235 232 232 228 222 227 230 230 233 230 233 245 254
74 79 103 107 84 76 83 67 66 71 115 155 118 301 325 343 59 99 62 59 52 42 42 59 114 100 80 57 61 65 18 4 350 353 355 352 348 346 345 343 346 351 355 355 356 355 353 358 360 356 353 350 347 344 341 336 330 324 322 321 313 303 297 294 287 278 269 260 255 250 245 244 242 239 239 243 245 248 252 250 248 246 242 240 234 230 231 228 220 221 227 227 231 233 232 237 246
114 83 78 85 72 59 73 79 89 75 44 80 109 340 340 354 57 59 29 36 41 37 42 62 116 96 81 80 63 58 19 4 359 360 356 351 348 345 342 341 345 350 354 354 354 353 353 359 2 360 359 356 352 348 344 341 338 331 325 322 315 305 295 292 289 284 280 270 260 255 250 244 241 240 240 245 247 246 251 254 253 251 247 243 238 232 229 229 222 216 223 225 228 233 230 234 243
116 93 77 85 59 40 82 81 71 91 40 31 65 20 9 31 68 62 32 35 37 26 35 55 122 93 68 172 83 38 13 2 2 359 353 348 345 342 339 339 341 348 352 351 352 351 352 358 1 1 2 1 358 354 351 348 346 341 334 327 318 311 301 293 288 283 281 277 268 259 254 249 244 240 238 242 247 247 250 253 252 251 249 246 240 234 231 230 224 216 220 225 226 229 228 230 237
84 95 85 82 73 69 82 63 55 69 30 18 30 28 37 60 70 71 47 44 48 23 31 47 83 124 141 125 119 31 12 2 360 356 353 347 342 341 340 340 341 347 350 349 351 350 352 357 358 359 2 1 360 359 357 355 351 348 343 337 327 316 308 298 289 283 279 277 274 265 256 251 248 243 238 238 242 246 247 245 245 247 247 244 240 236 234 230 224 219 218 223 226 227 226 229 232
74 85 92 78 84 81 65 50 50 37 9 30 33 30 43 68 70 67 65 44 37 32 32 51 69 112 153 129 152 18 6 358 359 357 353 348 346 345 345 346 345 348 348 348 350 350 352 356 358 359 1 1 360 360 359 358 355 352 348 346 341 326 314 305 295 285 280 278 275 270 262 254 250 246 242 238 240 242 244 245 243 243 244 244 240 237 237 230 224 222 219 219 224 225 224 228 230
72 71 92 83 70 81 91 90 88 88 306 349 25 36 52 70 76 61 69 63 40 43 31 36 60 99 146 155 211 354 359 355 0 358 354 354 352 350 350 352 351 350 348 349 351 352 353 354 357 360 2 2 0 0 360 358 357 355 350 347 345 338 325 313 304 294 284 280 276 272 268 261 255 249 245 242 241 241 242 244 245 241 241 241 237 234 233 228 224 222 221 218 220 223 223 227 230
75 42 78 79 72 102 133 123 134 152 332 355 8 21 56 68 86 72 68 70 34 44 30 17 26 109 134 230 263 347 354 355 359 357 358 359 354 352 355 357 355 351 349 351 353 354 355 355 356 359 2 2 1 2 0 359 358 355 351 346 343 341 335 322 310 301 292 282 277 273 270 267 263 255 248 245 244 242 240 240 242 242 241 239 237 236 232 227 225 222 221 219 218 219 220 224 228
92 92 83 88 91 113 125 126 155 122 359 309 265 9 64 65 98 118 84 67 34 43 22 13 29 138 63 330 303 340 351 354 357 360 1 358 352 352 360 2 358 354 352 353 356 357 359 358 357 358 0 0 1 2 0 360 359 356 352 348 343 340 337 330 318 305 296 287 279 275 271 269 265 260 252 247 246 243 241 239 239 241 241 238 237 238 235 229 224 222 221 221 220 217 218 223 226
102 97 92 105 88 107 118 125 154 114 9 253 226 30 71 68 102 119 86 66 33 48 22 18 61 144 19 349 324 341 352 354 355 359 359 355 349 353 4 7 2 359 357 358 0 0 2 2 359 358 359 359 359 0 359 359 360 359 357 351 347 342 337 333 327 315 301 292 284 277 273 270 265 262 257 249 246 244 242 240 239 239 239 235 232 233 234 231 225 221 220 221 222 219 215 220 225
108 98 87 101 89 87 99 148 152 121 180 231 204 164 78 75 92 104 86 75 51 60 30 32 53 71 1 347 333 343 351 351 353 356 355 350 349 358 9 11 7 5 5 5 6 5 5 4 1 360 359 358 358 358 357 358 0 360 359 355 351 345 340 334 330 326 313 297 288 280 273 269 266 262 259 253 247 245 244 241 239 238 238 234 230 229 229 229 227 222 219 220 222 220 216 218 222
107 102 80 84 86 89 89 133 129 104 203 215 178 169 94 80 96 92 76 95 89 71 43 42 47 48 11 334 335 345 349 351 353 354 351 347 351 4 12 13 11 13 15 12 10 10 10 7 4 2 360 358 358 357 355 357 359 358 357 355 354 350 345 338 331 328 324 308 291 282 274 269 267 263 259 256 249 243 243 242 239 236 235 232 229 228 225 226 227 223 221 220 220 222 219 217 221
96 90 67 85 96 119 147 163 156 135 198 210 173 192 180 110 108 96 91 118 113 92 79 56 41 34 3 349 350 349 348 351 353 354 354 353 356 5 12 14 11 15 20 16 13 13 12 10 7 5 1 359 358 356 355 357 357 356 354 354 355 355 351 344 334 329 328 321 301 284 276 269 266 264 259 254 250 245 242 242 240 234 231 230 228 226 225 225 224 224 223 220 219 222 220 216 221
77 77 65 97 128 123 183 184 168 135 151 171 139 177 174 122 352 124 121 114 125 129 120 73 18 353 351 5 7 354 349 351 352 353 356 359 0 3 10 12 10 12 16 15 12 11 11 11 10 7 3 1 360 356 357 358 356 354 354 354 355 356 354 350 343 335 330 327 316 296 281 273 266 263 260 254 250 246 243 242 240 236 232 230 229 227 226 225 223 223 222 220 219 221 220 218 221
61 92 80 100 183 155 152 158 151 129 141 141 112 123 128 87 12 144 147 135 144 141 110 231 358 30 18 16 8 356 351 350 350 351 353 359 2 2 6 7 8 10 12 13 11 9 10 11 11 8 4 3 1 358 359 358 355 355 355 355 357 357 356 354 350 341 334 329 322 311 292 279 270 263 260 255 250 247 244 242 239 235 232 232 231 229 228 224 222 224 223 220 219 221 222 218 219
53 79 79 162 181 129 89 117 136 140 139 134 120 113 98 80 65 160 167 144 140 151 325 284 18 27 26 16 7 359 353 350 347 350 352 356 1 1 4 4 5 8 10 11 8 8 9 11 13 9 7 4 1 1 1 359 356 357 358 359 359 358 358 357 353 346 339 332 325 320 306 286 276 269 261 255 251 247 245 241 237 233 229 231 229 227 228 225 219 218 218 214 213 220 222 219 219
47 59 109 173 158 117 87 105 128 144 142 139 135 124 105 85 53 140 165 143 317 247 239 329 10 9 14 10 7 1 352 349 345 351 354 354 358 1 4 4 4 6 8 10 8 7 9 13 14 11 9 4 2 3 2 0 359 1 2 3 2 360 358 356 353 348 344 337 329 325 317 298 280 275 267 257 251 247 245 239 235 233 229 229 226 225 227 228 223 215 213 214 217 223 223 222 219
68 50 106 143 146 121 108 108 119 145 149 147 142 120 123 152 53 99 165 178 254 227 113 7 8 358 1 2 4 359 349 347 345 350 354 353 355 358 3 5 3 5 7 9 7 7 10 14 13 11 8 5 4 4 3 2 1 5 6 6 4 1 360 356 352 348 346 345 338 331 324 312 287 279 274 263 252 247 246 240 234 232 232 229 225 225 226 230 229 218 215 219 223 226 225 223 219
97 63 79 106 129 123 121 110 109 140 139 132 130 80 134 179 128 74 200 221 230 117 79 44 4 344 347 354 358 352 345 347 347 349 352 353 354 356 2 5 3 5 7 7 7 6 9 13 12 10 7 6 6 5 5 3 3 7 7 7 6 4 2 359 354 350 350 354 347 339 332 325 321 306 286 271 256 246 244 242 235 231 234 230 224 225 225 230 232 222 218 220 223 226 227 226 220
100 88 75 96 114 115 119 118 116 135 128 112 103 122 127 139 153 257 277 298 325 198 116 55 337 318 337 347 348 345 344 347 347 348 349 351 354 356 1 5 3 3 5 6 7 6 7 11 10 8 6 7 7 7 7 4 5 8 9 10 8 7 8 3 359 356 358 1 353 347 341 337 347 358 339 292 266 251 244 242 237 232 234 231 226 225 224 230 233 223 221 223 223 223 224 226 219
67 113 121 107 111 113 118 123 122 123 113 96 137 159 127 113 246 258 262 283 302 244 211 285 293 304 331 338 339 340 342 345 346 347 347 348 353 356 0 5 4 1 3 5 6 5 6 9 8 5 6 7 8 8 7 6 7 9 13 11 7 10 11 7 5 5 7 7 2 359 350 346 354 9 20 341 285 261 250 245 241 236 236 234 229 226 225 230 233 226 226 225 220 219 222 224 218
69 129 128 120 118 118 121 123 123 118 95 77 152 173 122 182 284 268 261 269 279 252 235 264 278 282 313 331 335 337 340 343 345 346 346 346 351 356 1 5 4 360 1 4 4 3 4 6 7 5 5 7 8 8 8 9 9 11 15 10 6 12 14 10 11 14 16 12 10 13 359 350 357 15 31 3 317 281 260 252 245 239 240 239 234 230 227 232 237 233 234 229 215 216 222 221 218
125 123 117 119 123 122 120 124 119 116 41 30 155 221 250 234 284 265 270 278 242 241 237 265 275 267 296 328 330 336 338 340 344 346 344 343 347 355 1 3 3 1 358 1 1 2 2 4 7 5 4 7 7 8 11 12 11 11 14 12 8 11 16 16 16 20 22 16 14 18 8 354 358 15 28 3 339 320 273 251 241 238 240 241 241 235 229 233 240 243 249 239 219 213 218 216 215
124 118 103 98 115 111 92 143 145 154 277 329 266 258 304 276 216 245 275 296 246 242 261 278 265 259 291 321 327 336 335 336 343 345 342 340 345 354 360 359 359 0 358 358 360 1 1 3 7 6 3 5 7 8 13 14 11 12 14 14 12 9 14 23 24 24 25 20 15 17 13 356 351 6 14 354 346 3 48 200 217 221 226 236 246 240 231 230 235 248 248 230 214 206 212 216 218
122 114 95 45 56 61 11 351 218 239 263 296 311 344 326 278 231 231 287 287 247 249 284 299 258 247 284 310 327 334 329 331 341 344 339 337 343 351 357 356 356 356 357 358 358 2 2 3 6 7 5 5 8 9 13 15 11 12 14 15 17 12 12 25 30 28 27 23 17 15 15 360 355 18 30 19 14 56 116 138 153 166 187 224 243 239 229 227 230 243 234 207 201 205 216 224 226
122 77 95 50 16 10 354 17 308 234 260 294 341 340 295 270 242 220 258 274 249 251 261 315 263 240 275 304 326 329 323 327 337 342 337 335 342 348 351 353 353 351 355 358 358 1 2 3 5 7 7 6 8 10 12 15 12 12 15 17 21 18 13 22 32 34 30 28 25 21 17 7 7 25 32 33 55 105 130 131 131 142 163 202 231 236 228 224 226 234 236 213 212 222 226 229 231
107 6 52 46 50 319 318 19 19 133 247 277 95 129 258 274 260 215 223 256 248 253 232 301 284 241 269 300 322 321 318 323 334 341 337 335 342 344 346 349 351 350 353 357 358 1 2 4 5 6 8 7 8 10 12 15 12 11 15 18 23 24 19 19 27 35 34 32 32 31 28 24 18 16 19 33 60 108 132 136 142 157 178 187 205 225 226 223 226 233 242 235 229 231 233 230 229
48 50 339 349 81 305 302 12 42 37 260 252 109 243 264 276 269 216 214 243 244 259 236 251 281 240 272 302 313 312 313 318 328 340 339 338 341 341 344 348 349 350 353 356 358 360 2 4 5 5 8 8 7 9 13 15 13 12 16 20 24 28 27 23 23 29 35 36 35 37 39 40 37 33 34 43 62 104 128 135 141 144 143 136 163 199 209 216 225 231 229 223 229 230 228 226 221
2 81 103 333 43 2 318 351 19 9 291 257 162 242 275 272 285 223 212 232 241 259 256 241 266 269 289 303 306 305 305 310 322 336 343 343 341 340 344 348 349 350 352 355 358 359 1 4 5 6 7 7 7 8 13 15 14 13 16 20 23 28 32 31 27 26 30 36 39 39 38 38 40 42 45 46 47 66 103 112 103 97 112 127 134 157 171 186 202 209 199 194 211 220 217 215 211
327 24 78 325 356 339 320 264 343 9 22 308 251 219 251 265 306 276 216 227 240 249 266 266 279 289 295 299 299 299 298 309 324 335 346 347 341 340 344 349 350 349 349 352 355 357 1 2 2 6 7 6 6 7 11 16 16 14 16 20 23 26 31 33 33 31 29 32 38 42 42 40 39 40 44 46 44 42 48 60 64 64 75 188 184 174 165 160 157 144 174 188 197 206 207 203 198
245 8 44 329 328 278 312 272 330 7 5 326 324 247 268 279 306 298 224 224 235 244 266 276 287 290 289 289 289 293 297 311 325 334 347 349 342 341 344 349 352 348 345 349 353 355 358 1 1 3 6 6 8 8 9 14 18 17 17 21 22 26 31 35 36 37 35 33 35 38 43 46 46 44 45 46 48 46 43 42 44 44 38 38 66 150 132 105 100 114 155 186 193 198 202 198 192
180 175 173 256 294 282 281 261 314 0 336 299 293 255 285 291 299 298 257 229 230 245 265 267 275 287 285 287 287 292 302 311 321 332 346 351 346 343 345 350 352 349 344 345 350 352 353 358 1 2 3 5 8 9 8 11 17 19 18 19 21 23 28 33 37 40 41 40 38 36 36 40 45 51 53 52 51 52 51 49 47 48 46 48 57 69 83 86 86 127 169 190 200 199 198 195 193
173 155 198 233 253 285 275 260 331 2 347 270 284 300 293 289 281 288 286 242 226 238 254 260 267 287 293 295 296 299 306 311 319 332 342 350 351 346 345 348 351 350 346 343 345 347 349 354 360 0 0 3 6 9 10 11 13 15 17 17 19 19 21 26 32 37 42 43 42 41 39 38 39 45 54 58 59 60 60 58 55 55 55 56 62 67 73 79 80 89 137 177 204 206 199 196 197
111 167 224 296 313 286 275 252 325 5 12 266 340 345 300 293 285 283 282 234 223 232 242 255 260 280 299 302 307 308 310 314 321 331 339 347 352 351 347 347 350 351 349 345 343 344 346 351 356 358 358 0 4 7 9 11 12 13 13 14 16 17 18 20 25 30 35 40 44 46 45 44 42 42 45 48 54 62 66 66 62 61 62 64 68 72 75 75 75 75 83 120 167 196 206 208 208
39 99 113 355 332 300 296 289 325 1 11 279 344 347 301 299 296 286 266 225 232 239 242 256 263 276 301 310 317 315 313 316 321 331 338 344 350 352 348 347 349 350 351 347 342 342 345 348 352 355 356 358 1 4 7 9 10 12 11 10 13 15 17 19 21 24 28 32 38 44 47 47 45 43 43 42 42 48 57 64 63 60 59 61 64 71 77 78 81 86 83 84 104 134 184 201 205
42 48 62 326 324 344 304 303 332 342 353 272 318 322 296 313 319 320 306 228 243 248 245 256 265 275 296 307 313 312 312 317 322 333 339 343 348 350 349 348 349 350 351 349 346 344 345 347 348 352 353 355 358 1 4 6 8 10 10 9 8 10 15 19 22 25 29 30 31 35 40 44 45 43 43 43 43 43 43 48 54 55 56 56 56 56 63 73 81 92 93 87 84 110 173 187 189
359 54 99 347 316 294 249 284 327 335 27 325 338 349 312 336 337 319 344 298 256 251 252 261 267 277 288 296 306 309 312 319 326 333 338 342 346 348 349 349 348 350 349 349 350 347 346 346 347 349 350 350 353 357 360 2 6 9 9 11 9 9 13 16 19 22 25 27 28 30 31 35 40 42 43 42 43 44 43 42 44 43 46 49 50 48 47 56 67 80 89 94 96 110 160 193 192
337 272 139 153 259 249 267 304 330 8 33 351 23 39 303 320 328 280 313 345 292 277 280 278 280 284 284 293 310 315 317 323 328 332 336 340 343 345 348 349 347 348 349 349 350 349 348 346 345 346 347 347 348 351 355 357 0 5 7 8 9 10 12 12 13 16 18 20 21 24 25 26 32 36 40 42 42 42 42 43 42 39 35 34 31 27 22 25 39 55 22 326 249 165 177 201 212
11 202 157 152 188 233 308 333 8 55 350 320 42 81 268 313 322 273 303 330 302 300 301 295 296 293 290 299 312 317 319 325 327 329 334 338 341 343 345 349 347 345 346 348 348 348 347 348 347 345 344 344 344 345 349 352 355 360 3 5 6 6 8 10 10 11 14 17 16 16 17 20 24 28 31 35 37 39 41 41 41 39 35 30 18 2 350 342 340 326 299 294 280 251 232 228 231
345 161 140 132 119 126 332 19 49 66 286 333 20 81 194 297 283 270 307 324 313 317 311 314 317 301 297 304 309 314 318 324 325 328 333 338 341 342 342 345 347 344 343 345 347 346 345 346 348 348 344 341 341 341 343 347 350 354 357 0 2 2 2 4 5 6 8 12 13 11 11 13 15 19 21 24 28 30 33 34 35 35 32 29 24 12 355 334 312 291 279 275 271 266 262 257 255
279 169 140 175 157 141 107 65 47 309 47 350 326 15 80 272 274 301 348 338 311 304 286 302 316 308 303 303 306 312 315 320 324 328 335 340 342 342 340 342 344 343 341 341 342 342 343 343 344 348 346 341 340 339 339 342 344 347 351 353 355 357 357 359 359 360 360 1 5 5 5 7 8 10 12 13 17 19 19 23 24 24 21 19 18 14 8 358 340 311 283 271 267 260 254 254 258
257 139 105 29 69 81 76 71 60 21 53 311 286 345 42 280 285 310 354 290 270 269 263 279 295 302 305 309 316 320 322 326 329 332 337 340 341 341 340 340 342 340 337 340 341 338 339 339 338 343 345 342 342 340 339 339 339 341 344 346 348 350 351 354 354 355 354 353 354 355 355 358 360 2 3 2 5 6 6 8 8 7 4 4 3 360 356 352 349 342 326 308 295 272 252 248 250
116 93 51 25 24 44 56 40 70 62 14 263 260 328 63 289 284 253 218 220 213 210 255 272 274 290 307 324 335 335 336 336 336 337 338 339 341 342 341 341 342 340 335 336 340 339 337 335 334 339 342 340 338 340 340 338 337 337 338 340 343 345 345 348 349 350 351 350 349 348 348 348 346 348 352 351 352 354 353 352 351 350 348 347 344 341 339 336 334 334 331 329 325 310 281 262 251
80 79 61 52 333 14 36 352 32 68 303 266 259 326 102 206 265 248 231 236 211 188 209 243 254 275 308 331 338 334 334 334 335 337 338 339 340 341 344 346 346 343 336 334 337 340 339 336 333 336 342 339 333 335 336 335 335 334 333 335 337 340 341 342 345 346 346 346 346 346 345 344 341 336 335 336 338 339 338 338 337 335 333 332 331 328 325 321 318 318 318 318 317 311 300 287 269
66 66 62 68 344 9 21 333 7 54 259 258 247 349 174 228 244 244 244 246 227 209 205 218 240 270 302 322 328 325 326 328 331 334 335 336 336 337 343 349 350 347 341 336 335 336 337 337 334 333 340 339 332 331 330 329 331 329 328 331 332 334 336 338 340 341 342 341 342 343 342 341 339 335 329 325 323 321 321 322 322 322 320 318 317 314 312 310 307 305 303 302 303 302 298 292 284
23 44 55 71 64 40 351 302 333 305 275 269 229 250 293 282 264 231 230 235 223 219 221 229 250 280 304 314 317 317 320 326 329 331 334 335 334 333 337 344 348 348 345 340 337 333 330 332 332 330 335 337 331 329 326 324 325 323 320 323 326 328 330 333 336 337 337 336 335 337 339 338 335 333 329 324 321 317 313 311 308 307 307 306 305 302 300 299 297 295 293 292 290 289 289 287 285
321 212 126 97 110 106 259 256 243 282 292 293 284 240 212 255 282 231 232 250 244 235 241 245 258 278 296 303 307 310 316 326 330 331 333 333 329 327 328 334 340 345 345 342 339 333 327 328 328 327 331 334 330 327 324 323 323 321 317 316 317 319 321 326 330 332 332 331 330 332 334 334 332 330 327 323 320 317 313 310 306 302 299 297 296 295 294 292 290 289 287 285 284 282 281 279 279
278 178 83 66 148 135 132 195 186 205 316 301 272 230 217 219 278 287 298 298 267 251 253 253 262 278 290 295 303 311 317 326 331 331 334 335 331 325 323 324 329 335 339 340 340 336 330 328 327 326 329 331 330 328 327 326 325 323 321 316 312 311 313 316 320 324 325 324 326 328 328 327 326 326 325 322 319 316 314 311 308 304 300 296 293 291 290 289 288 287 286 285 283 281 279 277 276
352 48 42 194 152 117 101 263 11 68 30 287 284 281 292 327 322 320 347 322 287 272 264 256 261 276 285 292 305 315 320 329 333 331 335 338 338 333 327 324 323 327 331 335 339 338 335 332 329 328 330 331 332 330 328 328 327 327 327 322 315 309 308 311 312 314 315 315 318 321 321 320 321 321 319 318 318 317 315 313 309 306 302 299 296 292 290 289 287 285 286 286 285 283 280 279 277
53 61 205 185 97 84 94 53 353 33 3 284 327 303 297 337 324 313 324 295 283 276 265 263 265 271 279 293 309 315 318 327 333 335 337 338 339 337 333 328 324 323 324 326 332 335 336 335 332 331 331 332 334 332 330 329 327 327 328 327 325 317 311 308 308 307 306 307 310 312 312 313 316 317 314 314 315 314 315 314 311 309 305 300 298 295 292 291 289 287 285 285 285 284 282 280 280
90 120 165 120 85 30 27 61 17 11 327 295 314 305 273 224 236 274 252 244 258 267 273 274 265 265 279 297 308 310 313 321 328 337 341 338 339 337 335 333 327 323 321 320 324 329 333 335 334 333 332 332 333 331 330 329 327 325 326 327 327 323 318 312 307 305 302 304 307 307 305 306 308 308 307 310 310 310 311 311 310 309 306 303 301 298 295 293 291 289 287 285 284 284 283 282 282
56 77 11 14 108 143 24 68 115 70 317 303 323 327 283 232 219 195 205 227 238 250 269 265 257 263 282 298 307 307 305 311 321 332 337 338 340 339 338 337 332 329 325 322 321 322 327 331 332 334 334 334 334 330 327 326 325 324 323 323 323 320 319 315 310 306 302 304 305 303 301 302 301 299 300 302 303 304 306 307 307 306 304 304 302 301 299 296 293 291 289 288 286 284 283 282 282
3 36 18 11 69 89 78 33 89 119 131 227 323 314 280 252 213 183 208 236 228 221 235 253 260 270 281 297 312 310 301 305 313 321 327 332 336 338 340 340 336 332 329 327 325 323 324 326 328 330 332 334 335 332 328 322 319 319 319 319 319 316 314 311 308 306 304 304 303 301 301 298 295 294 294 294 294 296 299 300 301 301 301 302 301 302 302 299 296 294 292 290 288 286 285 284 283
218 105 119 143 119 81 72 336 318 84 135 169 157 284 277 262 211 196 219 241 234 225 230 252 268 277 283 300 316 314 302 303 309 313 318 322 327 331 336 337 334 329 324 324 324 323 323 323 323 324 325 328 331 331 330 325 318 315 314 314 314 314 313 308 306 305 303 303 302 301 300 295 293 293 291 289 289 290 291 292 293 295 297 299 299 301 302 300 298 297 295 293 290 288 286 286 284